SCP
0 0 0 0 0 0 0 0 0 0 0 0 0 0 0 0 0 0 0 0 0 0 0 0 0 0 0 0 0 0 0 0 0 0 0 0 -0 -0 0 0 0 0 0 0
0 0 0 0 0 0 0 0 0 0 0 0 0 0 0 0 0 0 0 0 0 0 0 0 0 0 0 0 0 0 0 0 0 0 0 -0 -0 -0 0 0 0 0 0 0
0 0 0 0 0 0 0 0 0 0 0 0 0 0 0 0 0 0 0 0 0 0 0 0 0 0 0 0 0 0 0 0 0 0 -0 -0 -0 0 0 0 0 0 0 0
0 0 0 0 0 0 0 0 0 0 0 0 0 0 0 0 0 0 0 0 0 0 0 0 0 0 0 0 0 -0 0 0 0 -0 -0 -0 0 0 0 0 0 0 0 0
0 0 0 0 0 0 0 0 0 0 0 0 0 0 0 0 0 0 0 0 0 0 0 0 0 0 0 -0 -0 0 0 0 -0 -0 -0 -0 0 0 0 0 0 0 0 0
0 0 0 0 0 0 0 0 0 0 0 0 0 0 0 0 0 0 0 0 0 0 0 0 0 -0 -0 -0 0 0 0 0 -0 -0 -0 -0 -0 0 0 0 0 0 0 0
0 0 0 0 0 0 0 0 0 0 0 0 0 0 0 0 0 0 0 0 0 0 0 0 0 -0 -0 0 0 0 0 0 -0 -0 -0 -0 0 0 0 0 0 0 -0 0
0 0 0 0 0 0 0 0 0 0 0 0 0 0 0 0 0 0 0 0 0 0 0 -0 -0 -0 -0 0 0 0 0 0 -0 -0 -0 0 0 0 -0 0 0 0 0 -0
0 0 0 0 0 0 0 0 0 0 0 0 0 0 0 0 0 0 0 0 0 0 -0 -0 -0 -0 -0 0 0 0 0 -0 -0 -0 0 0 0 -0 -0 0 0 0 0 0
0 0 0 0 0 0 0 0 0 0 0 0 0 0 0 0 0 0 0 0 0 0 -0 -0 -0 0 0 0 0 0 0 -0 -0 0 0 0 0 0 0 -0 0 0 0 0
0 0 0 0 0 0 0 0 0 0 0 0 0 0 0 0 0 0 0 0 0 -0 -0 -0 -0 -0 -0 -0 0 0 0 -0 -0 0 0 0 0 0 0 0 0 -0 -0 -0
0 0 0 0 0 0 0 0 0 0 0 0 0 0 0 0 0 0 0 0 -0 -0 0 -0 -0 -0 -0 -0 -0 -0 -0 -0 -0 -0 0 0 0 0 -0 0 -0 -0 -0 -0
0 0 0 0 0 0 0 0 0 0 0 0 0 0 0 0 0 0 0 0 -0 0 0 0 -0 -0 -0 -0 0 0 -0 -0 -0 -0 -0 -0 0 0 0 0 0 0 -0 -0
0 0 0 0 0 0 0 0 0 0 0 0 0 0 0 0 0 0 0 -0 0 0 -0 0 -0 0 0 0 0 0 0 0 -0 -0 -0 -0 -0 0 0 0 0 0 0 0
0 0 0 0 0 0 0 0 0 0 0 0 0 0 0 0 0 0 0 0 0 0 0 -0 -0 0 0 -0 -0 -0 0 0 0 -0 -0 -0 -0 0 -0 -0 0 0 0 0
0 0 0 0 0 0 0 0 0 0 0 0 0 0 0 0 0 -0 0 0 0 0 -0 -0 -0 0 0 -0 -0 0 0 0 0 0 0 0 0 0 0 0 0 0 0 0
0 0 0 0 0 0 0 0 0 0 0 0 0 0 0 0 -0 -0 0 0 0 0 -0 -0 -0 0 0 0 0 -0 -0 -0 -0 0 0 0 0 0 0 0 0 0 0 0
0 0 0 0 0 0 0 0 0 0 0 0 0 0 -0 0 0 0 0 0 0 0 0 -0 -0 -0 0 0 0 0 0 0 0 0 0 0 0 0 0 0 0 0 0 0
0 0 0 0 0 0 0 0 0 -0 0 0 0 0 0 0 0 0 0 0 0 0 0 -0 0 0 0 0 0 0 0 0 0 0 0 0 0 0 0 0 0 0 0 0
0 0 0 0 0 0 0 0 0 -0 -0 0 0 0 0 0 0 0 0 0 0 0 0 0 0 0 0 0 0 0 0 0 0 0 0 0 0 0 0 0 0 0 0 0
0 0 0 0 0 0 0 -0 -0 0 0 0 0 0 0 0 0 0 0 0 0 0 0 0 0 0 0 0 0 0 0 0 0 0 0 0 0 0 0 0 0 0 0 0
0 0 0 0 0 -0 0 0 0 -0 0 0 0 0 0 0 0 -0 0 0 0 0 0 0 0 0 0 0 0 0 0 0 0 0 0 0 0 0 0 0 0 0 0 0
0 0 0 0 0 0 0 -0 -0 -0 0 0 0 -0 0 0 0 0 0 0 0 0 0 0 0 0 0 0 0 0 0 0 0 0 0 0 0 0 0 0 0 0 0 0
0 0 0 0 0 0 -0 -0 -0 -0 -0 -0 0 0 0 0 0 0 0 0 0 0 0 0 0 0 0 0 0 0 0 0 0 0 0 0 0 0 0 0 0 0 0 0
0 0 0 0 -0 -0 -0 -0 0 0 0 0 0 0 0 0 0 0 0 0 0 0 0 0 0 0 0 0 0 0 0 0 0 0 0 0 0 0 0 0 0 0 0 0
0 -0 -0 -0 -0 0 0 0 0 0 0 0 0 0 0 0 0 0 0 0 0 0 0 0 0 0 0 0 0 0 0 0 0 0 0 0 0 0 0 0 0 0 0 0
0 0 0 0 0 0 0 0 0 0 0 0 0 0 0 0 0 0 0 0 0 0 0 0 0 0 0 0 0 0 0 0 0 0 0 0 0 0 0 0 0 0 0 0
Wind_Speed_500mb
9 13 8 27 26 22 20 13 21 7 22 6 5 9 19 18 18 23 23 33 32 40 46 57 72 84 89 94 101 107 111 114 89 81 82 87 97 96 76 74 62 57 59 63
4 14 11 3 23 26 27 26 21 23 27 10 17 36 18 11 16 20 24 28 39 50 64 67 73 86 81 100 100 108 124 95 79 74 93 88 90 86 60 56 49 51 52 51
9 16 13 8 24 33 33 34 31 25 24 9 8 7 10 15 18 25 28 37 47 55 62 64 77 73 86 94 97 118 114 85 78 72 83 84 81 66 57 45 45 43 45 47
8 13 8 12 31 39 32 28 29 23 10 9 7 12 18 23 23 24 31 43 53 57 65 72 72 78 85 90 107 110 88 83 78 81 81 78 67 59 48 37 37 34 39 41
9 9 6 11 18 34 28 26 27 21 10 8 11 13 16 16 18 23 38 49 51 54 64 69 67 79 91 104 102 94 82 80 79 77 69 61 57 42 34 27 28 27 32 35
8 10 14 15 11 21 10 10 10 7 8 8 12 3 7 10 23 35 45 38 44 56 61 57 71 82 93 102 94 83 77 77 74 61 55 46 46 27 23 18 19 23 26 27
9 4 6 10 26 26 13 11 21 18 12 12 7 8 10 16 28 31 27 31 46 56 40 61 73 78 93 85 80 74 72 68 58 45 40 41 28 16 11 7 12 18 23 28
6 7 11 26 32 20 12 22 16 15 7 4 9 12 24 36 33 26 31 38 46 30 50 63 65 82 82 74 69 65 62 56 43 34 35 28 16 7 3 9 18 26 34 44
14 9 8 21 28 27 21 10 3 7 12 19 28 36 40 29 23 28 35 43 23 42 55 56 66 73 67 62 59 57 54 47 38 31 27 16 9 2 14 17 23 33 40 46
13 10 16 20 9 11 4 10 17 22 28 31 27 15 21 25 30 35 35 23 33 45 47 53 69 58 52 49 49 48 45 41 35 27 20 11 3 6 17 21 30 38 43 50
7 9 16 18 11 5 9 9 4 8 13 20 26 30 32 31 26 25 23 27 39 32 40 53 58 45 43 42 42 43 39 38 34 25 14 6 3 8 15 18 28 38 40 44
8 14 12 5 9 5 7 10 14 18 20 22 27 25 16 18 26 26 28 29 28 27 38 47 44 37 36 37 38 38 36 34 31 25 15 9 9 14 9 6 17 23 27 33
8 24 21 12 5 3 6 13 19 23 27 27 24 23 22 25 26 26 22 28 22 21 35 36 35 32 30 35 35 32 30 26 24 22 19 11 13 17 23 18 10 10 16 20
20 18 15 15 8 12 21 25 27 27 26 30 32 25 21 18 17 20 26 21 11 17 31 24 27 29 30 35 36 28 24 20 19 19 20 17 15 19 21 24 29 29 19 17
27 24 20 7 7 7 5 7 12 5 2 6 4 6 15 21 21 24 18 5 9 16 21 23 24 25 27 30 32 27 24 20 17 16 19 19 19 21 22 25 29 33 32 29
23 19 11 9 10 12 8 8 13 8 6 8 8 13 16 23 18 14 10 13 16 8 12 20 21 20 20 23 25 22 22 23 19 17 18 19 22 22 23 26 30 31 32 34
16 9 9 13 11 10 5 1 5 9 6 6 8 12 8 10 9 9 17 12 6 2 6 18 18 15 13 14 15 15 16 17 20 21 20 19 20 21 22 25 27 27 28 30
11 13 13 15 9 5 4 8 5 4 5 2 4 5 5 1 3 6 10 10 8 5 6 14 23 16 9 7 7 7 8 14 17 18 17 16 17 18 21 24 25 29 33 29
13 12 13 15 13 12 12 10 4 2 2 1 3 6 9 7 6 2 7 9 7 3 6 13 16 12 8 5 5 5 10 13 16 17 17 18 19 19 20 20 28 32 33 33
24 19 17 18 17 14 12 10 7 6 6 6 6 8 8 10 9 11 10 9 7 5 4 9 14 11 7 7 6 6 6 17 20 19 20 21 21 20 20 25 32 38 37 26
23 22 19 18 19 15 13 13 10 11 11 10 8 9 8 7 9 7 6 4 7 4 3 7 9 8 6 5 8 9 12 14 17 22 24 22 22 24 26 31 36 35 29 25
23 22 23 20 19 17 13 10 7 7 11 10 11 9 7 6 4 2 3 7 7 3 1 5 1 6 8 12 15 18 18 20 23 25 26 25 26 28 32 35 36 31 31 30
25 24 25 22 18 16 14 10 9 14 12 9 9 12 7 5 5 8 3 4 3 2 5 10 13 15 18 18 21 23 25 24 26 28 29 30 30 31 32 32 31 29 29 27
24 22 20 21 21 17 13 8 9 9 13 17 12 10 9 6 8 8 8 12 9 13 15 18 20 22 23 26 26 28 28 28 27 30 31 30 30 30 29 29 27 25 24 22
26 25 20 20 22 18 11 9 8 6 8 10 7 5 7 11 5 9 12 15 16 18 21 21 20 20 22 24 26 26 27 27 28 29 31 32 32 31 28 26 27 25 23 21
28 24 20 18 13 12 12 5 2 2 2 1 2 3 7 13 16 16 15 19 21 21 22 21 20 19 20 20 21 23 25 28 30 31 32 31 29 30 29 28 29 29 29 26
20 20 18 14 14 11 9 3 4 5 6 7 9 2 10 14 17 20 20 20 21 20 20 18 17 16 17 19 21 24 25 27 28 28 28 30 28 28 28 27 26 25 24 24
Wind_Direction_500mb
56 72 171 188 191 170 196 188 195 155 253 257 328 347 291 312 39 19 7 353 3 354 339 330 322 322 324 324 323 325 321 322 318 315 310 309 312 314 304 307 305 297 284 258
87 98 88 184 212 195 203 216 248 267 264 260 282 277 284 67 52 17 29 14 348 338 336 331 325 323 321 324 318 319 317 317 309 306 309 313 319 314 309 308 307 290 272 249
148 131 99 303 226 201 212 225 218 226 240 214 216 145 108 72 36 59 20 359 343 336 333 326 323 320 319 317 314 315 320 313 315 318 315 319 317 318 310 310 301 278 260 242
128 123 198 225 193 210 221 226 230 248 253 231 189 118 93 76 60 32 1 342 333 331 329 325 316 316 318 315 319 321 318 313 316 319 317 322 315 317 311 304 294 278 250 235
161 167 353 242 206 195 201 238 231 227 183 165 123 112 95 61 25 358 341 340 334 324 322 318 314 320 321 321 322 325 323 318 319 319 319 319 315 313 316 306 283 267 247 233
163 162 194 221 151 110 109 246 232 104 216 187 110 89 252 335 322 323 327 326 321 325 316 316 320 325 323 323 325 322 322 318 320 323 316 319 318 319 325 304 277 245 228 226
160 136 278 143 125 121 140 221 126 121 118 134 157 206 277 306 319 315 312 318 325 317 314 322 326 325 324 326 324 327 324 326 328 322 321 321 320 322 326 278 221 198 190 185
175 159 246 164 147 160 187 120 141 146 161 321 285 285 297 299 296 302 313 323 318 307 325 326 327 325 327 326 330 332 332 334 336 333 331 325 318 321 219 200 182 173 170 168
181 202 196 97 135 132 129 128 178 197 202 258 274 277 287 292 306 318 324 318 293 316 323 324 325 329 328 332 334 338 341 347 346 343 335 335 321 220 182 173 172 164 165 163
139 210 154 147 165 138 170 210 238 241 249 253 257 288 298 305 313 321 314 297 313 325 322 326 324 329 333 336 339 345 349 354 358 356 350 351 352 176 185 175 171 169 164 159
152 146 135 106 93 360 297 285 210 259 294 308 310 307 305 304 314 310 299 311 327 324 324 320 326 334 337 340 348 353 358 5 9 8 10 36 101 175 174 178 182 175 172 167
195 160 140 156 91 55 3 336 322 324 312 302 307 305 303 317 315 306 301 315 325 319 314 319 337 341 345 351 358 359 6 13 15 20 26 62 108 125 125 158 187 187 178 176
146 132 110 106 93 27 358 327 312 304 301 304 296 297 300 293 286 284 301 320 310 305 305 323 338 345 357 5 4 7 11 20 26 35 46 76 110 117 120 112 126 158 175 170
132 138 95 71 65 320 314 321 317 310 292 284 282 275 263 254 264 292 310 318 294 280 302 327 339 354 5 12 9 11 15 27 40 53 59 71 93 117 132 137 133 126 125 138
116 114 110 108 315 321 316 321 344 70 341 271 343 287 286 290 293 308 313 234 204 274 313 336 348 1 10 16 18 22 31 36 43 60 72 80 101 114 127 138 137 130 128 123
130 125 118 121 252 132 80 99 110 74 346 298 281 272 278 284 309 314 234 208 247 276 332 345 350 4 7 11 16 32 44 54 58 70 82 84 99 117 133 140 142 142 141 138
138 139 168 141 101 82 40 158 267 305 316 308 284 284 307 317 303 223 218 228 228 229 327 341 357 359 16 12 22 43 50 59 75 80 75 83 95 103 118 135 141 143 147 154
168 181 185 196 200 205 182 261 300 287 294 326 16 8 32 316 216 203 223 237 227 220 313 346 342 349 30 31 34 64 73 85 91 95 93 98 98 99 108 120 130 138 141 145
149 164 194 216 211 216 216 231 223 118 59 109 139 89 63 63 72 160 186 178 176 209 4 342 326 343 24 59 71 103 99 110 113 115 117 117 117 116 119 127 131 133 136 131
138 145 146 142 132 137 143 131 134 153 154 149 119 98 68 63 88 104 110 108 112 88 2 341 352 18 55 68 88 126 90 123 125 124 129 131 132 134 130 129 130 132 133 131
141 142 145 145 143 137 135 140 163 171 149 134 122 94 94 89 85 117 133 61 45 97 70 337 333 9 64 84 126 123 126 127 134 136 137 140 138 131 126 123 124 129 134 139
169 162 159 156 148 139 142 145 149 163 154 132 115 115 131 132 129 134 79 89 99 126 255 274 210 105 112 120 123 118 119 120 126 127 128 129 128 125 124 125 129 128 127 128
168 169 165 160 152 154 149 147 111 71 75 107 129 138 117 113 162 168 130 122 138 190 125 117 112 121 130 130 123 120 120 124 123 122 123 125 128 130 129 130 133 129 130 129
167 160 167 172 172 160 147 111 111 78 62 56 65 132 136 109 77 105 126 145 135 118 115 105 108 109 115 117 119 122 124 129 129 126 125 125 127 130 131 131 130 132 133 132
172 172 174 168 149 143 141 118 102 79 58 45 47 44 124 165 176 143 127 125 125 131 126 123 125 126 126 124 124 124 126 126 129 128 128 128 130 132 133 135 136 138 140 141
174 167 154 150 140 155 150 133 136 141 79 95 71 64 116 129 138 142 145 136 136 138 137 140 140 141 138 137 138 140 139 134 134 134 136 137 139 137 138 138 138 137 135 136
169 170 168 175 192 188 177 154 202 200 203 212 210 227 155 151 155 152 149 146 147 147 146 144 142 141 141 141 141 141 138 137 139 141 140 139 142 143 143 141 141 141 140 138
Wind_Speed_850mb
9 13 8 27 26 22 20 13 21 7 22 6 5 9 19 18 18 23 23 33 32 40 46 57 72 84 89 94 101 107 111 114 89 81 82 87 97 96 76 74 62 57 59 63
4 14 11 3 23 26 27 26 21 23 27 10 17 36 18 11 16 20 24 28 39 50 64 67 73 86 81 100 100 108 124 95 79 74 93 88 90 86 60 56 49 51 52 51
9 16 13 8 24 33 33 34 31 25 24 9 8 7 10 15 18 25 28 37 47 55 62 64 77 73 86 94 97 118 114 85 78 72 83 84 81 66 57 45 45 43 45 47
8 13 8 12 31 39 32 28 29 23 10 9 7 12 18 23 23 24 31 43 53 57 65 72 72 78 85 90 107 110 88 83 78 81 81 78 67 59 48 37 37 34 39 41
9 9 6 11 18 34 28 26 27 21 10 8 11 13 16 16 18 23 38 49 51 54 64 69 67 79 91 104 102 94 82 80 79 77 69 61 57 42 34 27 28 27 32 35
8 10 14 15 11 21 10 10 10 7 8 8 12 3 7 10 23 35 45 38 44 56 61 57 71 82 93 102 94 83 77 77 74 61 55 46 46 27 23 18 19 23 26 27
9 4 6 10 26 26 13 11 21 18 12 12 7 8 10 16 28 31 27 31 46 56 40 61 73 78 93 85 80 74 72 68 58 45 40 41 28 16 11 7 12 18 23 28
6 7 11 26 32 20 12 22 16 15 7 4 9 12 24 36 33 26 31 38 46 30 50 63 65 82 82 74 69 65 62 56 43 34 35 28 16 7 3 9 18 26 34 44
14 9 8 21 28 27 21 10 3 7 12 19 28 36 40 29 23 28 35 43 23 42 55 56 66 73 67 62 59 57 54 47 38 31 27 16 9 2 14 17 23 33 40 46
13 10 16 20 9 11 4 10 17 22 28 31 27 15 21 25 30 35 35 23 33 45 47 53 69 58 52 49 49 48 45 41 35 27 20 11 3 6 17 21 30 38 43 50
7 9 16 18 11 5 9 9 4 8 13 20 26 30 32 31 26 25 23 27 39 32 40 53 58 45 43 42 42 43 39 38 34 25 14 6 3 8 15 18 28 38 40 44
8 14 12 5 9 5 7 10 14 18 20 22 27 25 16 18 26 26 28 29 28 27 38 47 44 37 36 37 38 38 36 34 31 25 15 9 9 14 9 6 17 23 27 33
8 24 21 12 5 3 6 13 19 23 27 27 24 23 22 25 26 26 22 28 22 21 35 36 35 32 30 35 35 32 30 26 24 22 19 11 13 17 23 18 10 10 16 20
20 18 15 15 8 12 21 25 27 27 26 30 32 25 21 18 17 20 26 21 11 17 31 24 27 29 30 35 36 28 24 20 19 19 20 17 15 19 21 24 29 29 19 17
27 24 20 7 7 7 5 7 12 5 2 6 4 6 15 21 21 24 18 5 9 16 21 23 24 25 27 30 32 27 24 20 17 16 19 19 19 21 22 25 29 33 32 29
23 19 11 9 10 12 8 8 13 8 6 8 8 13 16 23 18 14 10 13 16 8 12 20 21 20 20 23 25 22 22 23 19 17 18 19 22 22 23 26 30 31 32 34
16 9 9 13 11 10 5 1 5 9 6 6 8 12 8 10 9 9 17 12 6 2 6 18 18 15 13 14 15 15 16 17 20 21 20 19 20 21 22 25 27 27 28 30
11 13 13 15 9 5 4 8 5 4 5 2 4 5 5 1 3 6 10 10 8 5 6 14 23 16 9 7 7 7 8 14 17 18 17 16 17 18 21 24 25 29 33 29
13 12 13 15 13 12 12 10 4 2 2 1 3 6 9 7 6 2 7 9 7 3 6 13 16 12 8 5 5 5 10 13 16 17 17 18 19 19 20 20 28 32 33 33
24 19 17 18 17 14 12 10 7 6 6 6 6 8 8 10 9 11 10 9 7 5 4 9 14 11 7 7 6 6 6 17 20 19 20 21 21 20 20 25 32 38 37 26
23 22 19 18 19 15 13 13 10 11 11 10 8 9 8 7 9 7 6 4 7 4 3 7 9 8 6 5 8 9 12 14 17 22 24 22 22 24 26 31 36 35 29 25
23 22 23 20 19 17 13 10 7 7 11 10 11 9 7 6 4 2 3 7 7 3 1 5 1 6 8 12 15 18 18 20 23 25 26 25 26 28 32 35 36 31 31 30
25 24 25 22 18 16 14 10 9 14 12 9 9 12 7 5 5 8 3 4 3 2 5 10 13 15 18 18 21 23 25 24 26 28 29 30 30 31 32 32 31 29 29 27
24 22 20 21 21 17 13 8 9 9 13 17 12 10 9 6 8 8 8 12 9 13 15 18 20 22 23 26 26 28 28 28 27 30 31 30 30 30 29 29 27 25 24 22
26 25 20 20 22 18 11 9 8 6 8 10 7 5 7 11 5 9 12 15 16 18 21 21 20 20 22 24 26 26 27 27 28 29 31 32 32 31 28 26 27 25 23 21
28 24 20 18 13 12 12 5 2 2 2 1 2 3 7 13 16 16 15 19 21 21 22 21 20 19 20 20 21 23 25 28 30 31 32 31 29 30 29 28 29 29 29 26
20 20 18 14 14 11 9 3 4 5 6 7 9 2 10 14 17 20 20 20 21 20 20 18 17 16 17 19 21 24 25 27 28 28 28 30 28 28 28 27 26 25 24 24
Wind_Direction_850mb
56 72 171 188 191 170 196 188 195 155 253 257 328 347 291 312 39 19 7 353 3 354 339 330 322 322 324 324 323 325 321 322 318 315 310 309 312 314 304 307 305 297 284 258
87 98 88 184 212 195 203 216 248 267 264 260 282 277 284 67 52 17 29 14 348 338 336 331 325 323 321 324 318 319 317 317 309 306 309 313 319 314 309 308 307 290 272 249
148 131 99 303 226 201 212 225 218 226 240 214 216 145 108 72 36 59 20 359 343 336 333 326 323 320 319 317 314 315 320 313 315 318 315 319 317 318 310 310 301 278 260 242
128 123 198 225 193 210 221 226 230 248 253 231 189 118 93 76 60 32 1 342 333 331 329 325 316 316 318 315 319 321 318 313 316 319 317 322 315 317 311 304 294 278 250 235
161 167 353 242 206 195 201 238 231 227 183 165 123 112 95 61 25 358 341 340 334 324 322 318 314 320 321 321 322 325 323 318 319 319 319 319 315 313 316 306 283 267 247 233
163 162 194 221 151 110 109 246 232 104 216 187 110 89 252 335 322 323 327 326 321 325 316 316 320 325 323 323 325 322 322 318 320 323 316 319 318 319 325 304 277 245 228 226
160 136 278 143 125 121 140 221 126 121 118 134 157 206 277 306 319 315 312 318 325 317 314 322 326 325 324 326 324 327 324 326 328 322 321 321 320 322 326 278 221 198 190 185
175 159 246 164 147 160 187 120 141 146 161 321 285 285 297 299 296 302 313 323 318 307 325 326 327 325 327 326 330 332 332 334 336 333 331 325 318 321 219 200 182 173 170 168
181 202 196 97 135 132 129 128 178 197 202 258 274 277 287 292 306 318 324 318 293 316 323 324 325 329 328 332 334 338 341 347 346 343 335 335 321 220 182 173 172 164 165 163
139 210 154 147 165 138 170 210 238 241 249 253 257 288 298 305 313 321 314 297 313 325 322 326 324 329 333 336 339 345 349 354 358 356 350 351 352 176 185 175 171 169 164 159
152 146 135 106 93 360 297 285 210 259 294 308 310 307 305 304 314 310 299 311 327 324 324 320 326 334 337 340 348 353 358 5 9 8 10 36 101 175 174 178 182 175 172 167
195 160 140 156 91 55 3 336 322 324 312 302 307 305 303 317 315 306 301 315 325 319 314 319 337 341 345 351 358 359 6 13 15 20 26 62 108 125 125 158 187 187 178 176
146 132 110 106 93 27 358 327 312 304 301 304 296 297 300 293 286 284 301 320 310 305 305 323 338 345 357 5 4 7 11 20 26 35 46 76 110 117 120 112 126 158 175 170
132 138 95 71 65 320 314 321 317 310 292 284 282 275 263 254 264 292 310 318 294 280 302 327 339 354 5 12 9 11 15 27 40 53 59 71 93 117 132 137 133 126 125 138
116 114 110 108 315 321 316 321 344 70 341 271 343 287 286 290 293 308 313 234 204 274 313 336 348 1 10 16 18 22 31 36 43 60 72 80 101 114 127 138 137 130 128 123
130 125 118 121 252 132 80 99 110 74 346 298 281 272 278 284 309 314 234 208 247 276 332 345 350 4 7 11 16 32 44 54 58 70 82 84 99 117 133 140 142 142 141 138
138 139 168 141 101 82 40 158 267 305 316 308 284 284 307 317 303 223 218 228 228 229 327 341 357 359 16 12 22 43 50 59 75 80 75 83 95 103 118 135 141 143 147 154
168 181 185 196 200 205 182 261 300 287 294 326 16 8 32 316 216 203 223 237 227 220 313 346 342 349 30 31 34 64 73 85 91 95 93 98 98 99 108 120 130 138 141 145
149 164 194 216 211 216 216 231 223 118 59 109 139 89 63 63 72 160 186 178 176 209 4 342 326 343 24 59 71 103 99 110 113 115 117 117 117 116 119 127 131 133 136 131
138 145 146 142 132 137 143 131 134 153 154 149 119 98 68 63 88 104 110 108 112 88 2 341 352 18 55 68 88 126 90 123 125 124 129 131 132 134 130 129 130 132 133 131
141 142 145 145 143 137 135 140 163 171 149 134 122 94 94 89 85 117 133 61 45 97 70 337 333 9 64 84 126 123 126 127 134 136 137 140 138 131 126 123 124 129 134 139
169 162 159 156 148 139 142 145 149 163 154 132 115 115 131 132 129 134 79 89 99 126 255 274 210 105 112 120 123 118 119 120 126 127 128 129 128 125 124 125 129 128 127 128
168 169 165 160 152 154 149 147 111 71 75 107 129 138 117 113 162 168 130 122 138 190 125 117 112 121 130 130 123 120 120 124 123 122 123 125 128 130 129 130 133 129 130 129
167 160 167 172 172 160 147 111 111 78 62 56 65 132 136 109 77 105 126 145 135 118 115 105 108 109 115 117 119 122 124 129 129 126 125 125 127 130 131 131 130 132 133 132
172 172 174 168 149 143 141 118 102 79 58 45 47 44 124 165 176 143 127 125 125 131 126 123 125 126 126 124 124 124 126 126 129 128 128 128 130 132 133 135 136 138 140 141
174 167 154 150 140 155 150 133 136 141 79 95 71 64 116 129 138 142 145 136 136 138 137 140 140 141 138 137 138 140 139 134 134 134 136 137 139 137 138 138 138 137 135 136
169 170 168 175 192 188 177 154 202 200 203 212 210 227 155 151 155 152 149 146 147 147 146 144 142 141 141 141 141 141 138 137 139 141 140 139 142 143 143 141 141 141 140 138